Wind_Speed
43 45 46 48 47 49 50 52 51 51 51 50 50 50 49 47 44 45 40 29 36 14 15 11 19 14 11 24 6 10 6 2 1 5 6 4 4 6 3 4 6 7 6 4 3 5 6 9 3 3 2 2 3 4
44 45 44 47 47 49 50 51 50 49 49 48 48 50 48 45 43 43 32 30 27 22 6 10 10 12 16 19 6 29 6 9 11 3 2 3 2 2 3 5 3 4 6 4 6 3 2 3 3 3 7 8 9 13
47 47 44 47 50 50 48 50 49 47 47 48 49 48 46 45 43 45 34 30 26 17 11 18 7 10 12 19 17 8 6 12 11 7 5 2 3 3 5 4 2 3 10 2 3 3 2 5 9 7 9 10 13 15
47 48 47 48 51 49 48 48 46 47 47 49 47 45 45 44 44 44 36 30 29 10 4 3 10 12 10 16 22 23 17 19 20 11 4 2 2 5 2 2 2 5 6 6 3 2 4 2 11 12 14 18 20 21
45 52 51 51 50 48 46 45 46 47 47 47 45 44 45 44 40 39 37 32 30 22 5 2 4 1 5 8 9 11 21 26 15 5 2 2 4 4 2 1 2 4 5 4 4 2 4 6 13 15 15 17 19 21
54 54 53 48 46 45 46 45 44 47 44 47 46 44 48 44 41 41 17 28 33 25 7 2 1 6 11 11 14 18 21 16 9 7 4 3 4 6 3 4 4 15 18 9 5 11 10 8 11 16 19 21 20 21
41 45 45 44 43 44 45 43 44 47 45 45 45 46 42 41 45 37 12 17 39 32 8 3 1 4 14 12 10 13 12 8 7 5 3 3 4 7 2 2 9 13 14 13 11 9 11 19 15 16 17 18 19 19
36 38 41 41 42 44 40 42 44 45 47 44 41 40 43 42 39 39 18 18 41 27 10 4 2 5 10 4 4 3 4 5 3 3 6 5 10 5 2 7 16 15 13 12 14 17 15 9 11 17 19 21 22 20
37 39 40 42 44 42 44 47 44 42 42 42 43 41 42 40 22 30 31 29 39 12 10 6 7 5 12 4 6 3 3 2 6 2 2 10 3 3 5 15 19 14 11 15 11 10 10 14 15 16 17 18 21 22
42 40 44 45 44 42 40 41 44 45 45 44 40 17 6 18 27 34 22 15 9 7 8 3 8 4 14 7 3 6 4 2 3 5 9 2 3 12 22 22 20 17 13 7 8 13 11 11 11 14 16 13 13 16
39 39 40 41 42 42 43 43 44 45 50 35 8 6 34 43 30 8 8 7 6 4 11 8 8 9 11 3 3 8 3 3 3 3 4 3 3 5 22 23 19 16 13 13 11 10 10 9 9 8 7 9 12 8
39 38 39 39 39 38 38 38 49 42 22 18 20 28 20 9 5 5 5 5 4 6 8 7 16 12 12 8 4 6 3 2 4 8 3 4 4 23 27 23 18 13 9 10 6 6 8 7 4 4 5 9 9 11
36 34 32 33 35 34 32 48 39 34 30 42 14 6 7 4 5 9 11 4 5 8 11 24 11 10 7 7 4 3 3 3 15 2 4 3 17 29 27 23 18 12 8 8 9 4 3 4 6 6 10 11 13 15
29 30 30 29 28 33 50 44 32 41 17 5 4 6 5 4 4 4 4 5 8 26 37 31 12 3 7 3 3 5 3 4 3 4 6 5 23 28 24 18 15 13 10 10 9 4 4 7 9 9 11 13 15 18
26 27 26 27 38 49 42 36 36 17 7 4 2 2 4 3 5 6 21 21 33 45 37 17 9 8 2 4 3 4 4 4 5 5 5 23 29 27 23 17 13 12 13 11 8 6 6 7 9 10 12 12 14 18
25 24 30 42 46 43 42 39 21 11 5 2 2 0 2 1 3 16 30 32 42 37 26 8 4 4 3 5 4 5 8 6 3 4 26 33 29 26 22 20 17 15 15 12 10 7 3 7 9 9 8 11 14 16
32 31 45 46 44 42 32 23 9 7 4 3 1 1 5 13 11 21 35 36 32 17 3 4 4 3 4 3 5 3 4 5 22 24 29 34 31 25 22 17 16 17 15 12 8 6 5 6 7 6 8 11 15 12
40 39 42 43 37 29 22 10 6 5 4 7 3 13 19 20 25 27 22 23 14 6 3 3 6 3 5 5 2 4 19 25 27 32 30 26 24 19 16 19 20 17 13 9 8 5 4 5 4 6 10 13 14 14
48 45 40 33 22 12 5 5 4 3 6 7 15 21 17 17 25 25 24 19 15 11 11 3 4 2 2 3 16 23 27 30 30 31 29 25 22 20 19 20 20 15 11 8 5 2 1 4 4 8 12 14 14 15
34 29 24 18 15 7 6 4 5 6 3 5 14 18 13 18 23 20 19 15 10 5 5 4 2 4 12 25 30 32 33 36 36 32 27 23 21 20 19 20 16 12 9 6 4 0 1 3 7 11 12 12 13 12
23 19 14 15 14 7 7 6 5 7 8 7 17 16 10 18 18 13 9 6 9 5 3 8 20 27 27 30 32 34 33 32 32 31 34 28 22 20 20 18 14 12 9 8 7 4 3 5 9 11 11 10 11 11
19 15 13 9 4 4 6 7 9 13 6 11 10 7 5 2 3 6 5 11 6 7 10 25 30 31 31 28 27 27 26 22 20 21 21 27 28 23 19 15 13 12 10 7 7 9 8 10 10 10 9 9 8 12
13 8 6 3 5 5 2 6 4 3 4 4 8 4 2 2 3 4 5 5 6 21 25 29 27 27 29 27 26 25 24 25 27 24 24 21 17 15 14 11 11 10 9 8 9 9 9 9 10 8 7 8 8 13
8 4 3 4 5 3 4 3 4 4 6 3 3 4 3 2 2 3 3 4 16 23 25 25 27 29 27 25 26 24 23 21 24 23 18 19 19 17 13 12 11 10 11 11 11 10 10 9 7 7 8 6 10 14
3 7 5 5 5 4 4 3 3 3 3 3 4 3 1 3 2 2 3 7 21 23 25 26 25 26 28 25 24 22 17 18 23 23 18 13 14 14 11 9 9 9 10 13 12 9 8 7 8 7 8 7 10 13
7 8 4 2 1 4 3 4 3 3 3 3 2 5 3 3 3 2 2 19 22 26 28 28 26 24 23 26 28 24 19 14 15 16 15 11 10 12 15 15 14 12 10 9 10 9 9 9 8 9 7 7 10 13
4 4 5 5 5 7 6 8 9 4 4 3 3 2 3 3 2 1 8 15 20 25 25 24 24 26 26 24 21 20 17 13 10 11 14 14 13 12 12 13 13 11 10 8 8 9 10 10 10 8 7 7 11 13
5 4 3 6 7 8 4 3 3 2 1 6 5 3 4 3 2 3 5 8 17 23 24 21 20 24 25 22 19 17 17 15 15 14 13 14 14 13 12 13 13 13 12 11 11 10 9 9 9 9 8 8 10 10
4 4 7 6 6 9 5 4 2 5 9 2 3 2 3 5 6 9 10 15 21 25 24 24 25 24 21 18 14 10 9 11 15 17 16 15 14 14 14 13 12 12 11 11 10 9 8 7 7 7 7 7 7 6
3 4 4 5 4 4 5 7 7 15 15 13 10 17 19 15 13 13 16 17 23 23 22 21 21 17 16 15 14 13 11 12 12 13 14 13 8 8 9 9 10 9 9 9 8 8 8 8 7 7 7 7 7 7
3 4 6 6 4 4 13 16 19 21 22 23 20 20 14 12 15 12 13 13 16 18 17 17 16 14 12 10 9 8 9 13 15 16 14 10 7 6 6 6 6 7 7 7 7 6 6 7 6 7 6 7 10 12
5 4 4 4 4 7 7 5 5 6 7 8 7 9 10 7 5 4 8 9 9 10 11 12 12 11 9 7 6 4 2 5 12 13 10 9 7 6 6 7 7 6 6 6 6 7 7 7 7 8 10 11 12 12
11 18 16 9 5 4 3 4 4 4 7 5 8 7 7 5 5 2 9 9 9 9 7 7 8 7 9 10 8 6 5 5 7 9 11 10 7 6 6 5 5 6 6 6 7 7 7 8 8 9 10 11 11 12
Wind_Direction
218 217 215 215 212 209 207 207 205 204 205 204 204 205 205 205 202 200 205 214 214 229 280 296 247 232 231 228 182 150 115 170 66 172 184 176 189 210 193 192 175 176 179 197 199 224 260 112 46 144 187 196 253 269
216 211 210 209 207 204 202 202 203 202 203 202 202 202 203 203 199 198 197 206 207 207 222 304 254 239 235 212 234 169 196 151 168 164 159 128 165 166 159 245 77 189 198 177 202 213 246 171 193 227 233 239 249 262
214 210 206 204 201 200 197 199 201 201 202 201 202 200 200 198 196 197 193 196 195 210 241 265 265 249 240 231 194 195 189 173 170 161 131 110 200 161 184 210 155 38 192 170 103 174 80 322 322 347 9 331 341 342
209 206 202 198 196 197 197 197 197 198 198 197 196 196 197 193 192 195 191 193 192 157 149 253 240 238 247 241 211 210 202 176 170 147 113 146 167 183 190 79 179 182 156 207 226 312 353 68 29 16 353 341 335 327
198 196 194 193 192 193 193 192 192 194 194 193 194 192 191 190 188 189 197 200 205 189 137 186 158 90 236 229 242 215 198 178 154 119 110 172 137 102 28 66 280 206 198 155 209 76 174 36 8 1 345 344 359 360
173 170 177 182 186 188 187 186 188 187 191 190 186 185 181 181 182 179 183 203 194 191 161 189 183 99 110 124 141 161 169 154 123 112 118 123 170 115 141 198 184 89 78 135 102 72 54 22 11 29 31 19 25 28
153 162 169 173 178 179 183 184 184 182 189 183 187 175 172 177 182 177 179 196 196 194 151 166 143 117 117 122 112 96 105 89 95 98 114 126 101 137 244 203 115 90 84 76 66 54 55 48 46 25 12 3 354 359
154 157 166 166 173 175 180 169 171 173 166 162 165 167 175 181 188 190 200 183 184 173 148 140 122 133 139 109 90 64 83 76 79 151 180 135 151 208 227 146 127 115 103 80 85 80 75 49 11 6 357 353 2 16
159 162 156 157 159 163 160 153 155 161 163 166 169 172 169 177 181 185 207 175 170 179 135 171 168 154 151 120 114 98 100 85 156 161 215 156 170 210 216 133 110 115 107 105 92 67 34 31 33 28 20 18 17 14
141 148 146 143 147 152 158 161 161 163 164 168 163 151 135 157 163 158 151 164 195 155 142 146 126 120 146 155 114 129 151 156 177 222 148 133 167 106 109 111 118 119 113 115 85 60 54 44 32 29 26 18 9 4
142 146 149 151 152 153 156 162 166 167 160 144 125 95 135 131 139 150 152 181 157 142 165 143 155 129 151 127 128 184 174 194 164 224 131 202 164 165 121 119 117 113 100 91 103 93 72 54 33 24 13 3 0 7
141 143 146 149 152 154 158 159 153 150 152 151 144 129 142 145 157 166 163 157 178 164 160 135 146 126 129 135 144 186 173 125 181 150 126 190 178 149 129 129 121 111 109 112 88 73 40 48 23 45 16 4 4 354
143 145 148 151 157 159 159 156 152 151 130 129 123 122 161 165 190 186 176 172 148 159 143 146 136 133 142 160 142 123 147 192 129 100 202 185 130 128 134 130 121 117 122 105 106 107 71 87 42 66 26 14 1 353
146 146 148 151 151 151 159 160 148 137 136 106 130 141 197 183 229 203 173 140 124 136 140 141 127 119 136 121 142 131 139 139 164 184 187 140 132 137 140 138 140 133 129 122 154 147 90 68 57 41 28 9 351 344
144 145 150 148 156 158 154 151 145 129 79 82 131 178 206 287 275 147 119 121 134 136 136 115 80 88 109 121 148 128 150 196 201 193 144 147 134 139 136 146 155 141 136 152 148 123 97 41 39 35 23 352 338 338
147 142 148 154 150 155 151 150 109 82 75 84 126 247 277 155 85 123 129 131 142 137 135 111 118 127 160 140 139 191 165 188 157 110 133 134 150 154 148 150 148 145 156 155 149 141 101 40 24 32 0 334 332 338
147 128 150 159 148 145 139 108 63 53 51 358 342 315 148 110 120 129 135 138 146 136 119 119 108 150 131 131 158 143 162 130 125 125 135 151 153 154 158 155 156 156 158 163 150 105 61 26 34 1 339 333 328 339
143 146 150 146 124 101 87 59 74 62 26 15 63 86 101 112 125 132 146 143 130 95 85 135 127 105 151 133 113 119 114 120 124 137 142 145 152 154 157 158 153 161 167 143 116 94 37 12 23 331 318 315 324 323
141 133 127 122 113 91 86 50 47 87 59 61 83 95 93 86 98 101 102 110 116 106 115 84 78 104 141 109 128 130 130 134 134 136 140 147 150 162 161 159 160 164 151 138 128 115 21 56 315 302 308 316 328 332
118 124 130 124 109 82 85 62 62 88 65 98 88 80 73 74 90 89 90 92 94 74 52 42 37 68 119 130 139 141 142 139 137 134 144 156 165 169 166 156 156 151 141 128 119 27 72 159 267 289 305 319 330 349
125 124 113 94 79 83 100 142 117 120 101 107 103 85 74 73 65 63 59 53 59 40 64 96 97 116 135 143 146 146 148 153 156 160 163 159 163 153 153 165 167 152 157 170 170 215 264 245 271 293 307 323 340 347
128 114 102 96 90 87 78 88 116 123 100 139 101 77 72 41 41 32 54 52 54 53 120 124 124 132 128 128 140 146 147 150 151 152 153 153 160 166 172 172 162 165 179 203 200 221 232 250 281 300 315 334 347 333
142 155 140 126 102 88 26 84 90 85 114 122 119 98 73 70 63 57 75 72 82 130 137 132 130 133 135 141 145 150 161 159 160 158 154 154 157 161 165 164 171 186 192 217 232 238 244 265 289 311 320 337 331 327
157 107 80 84 82 112 109 47 76 76 101 98 83 91 73 116 106 66 83 80 138 142 140 143 147 142 144 148 148 153 162 164 155 154 156 156 157 164 182 190 200 204 203 220 240 245 253 276 295 304 317 326 320 330
106 10 60 43 87 87 76 42 51 69 96 70 71 77 133 130 87 61 107 134 152 152 156 158 162 162 153 154 155 155 165 162 154 151 163 175 169 172 181 197 212 224 223 227 236 245 258 280 296 298 310 312 318 326
67 8 54 85 175 103 132 112 146 128 85 71 87 105 136 80 72 97 104 166 172 170 175 172 167 161 167 169 160 160 166 163 157 156 160 178 191 195 195 201 209 221 246 245 238 249 259 270 286 295 301 306 309 314
66 12 20 40 75 82 81 61 68 80 90 118 140 99 83 96 117 125 117 159 178 186 186 181 175 173 167 166 163 161 162 169 171 156 165 181 197 213 219 221 225 242 250 252 258 261 257 264 276 282 288 287 295 303
44 51 74 12 64 53 102 85 87 103 81 117 111 114 123 120 98 90 135 155 174 169 166 171 175 175 171 171 168 167 169 176 180 187 190 196 206 215 219 226 235 244 251 257 265 267 262 265 272 279 289 296 299 308
58 70 63 16 48 44 31 25 60 40 357 120 112 88 83 72 105 128 144 152 162 168 166 163 158 168 166 166 170 177 187 196 196 195 202 207 210 217 221 224 234 243 249 254 259 261 263 270 279 284 291 296 302 306
15 29 90 48 55 64 26 43 67 64 70 91 96 103 101 106 113 134 151 158 164 164 163 164 160 174 175 174 173 183 200 210 211 217 219 220 222 222 222 219 230 239 246 249 252 255 258 260 271 275 277 295 306 315
46 75 73 56 66 41 94 88 81 80 76 82 112 118 124 118 111 119 133 140 158 165 167 169 172 181 184 182 187 195 204 208 205 208 216 219 224 224 228 238 241 240 246 252 260 261 260 264 267 274 287 293 296 300
27 73 127 120 119 117 102 89 84 84 78 77 93 103 114 104 80 92 115 139 159 172 176 179 177 179 183 181 181 198 210 213 214 216 214 216 223 233 238 242 247 246 246 253 256 262 272 276 273 271 271 277 286 296
85 93 108 117 127 114 85 99 81 76 60 58 37 50 52 65 88 123 160 157 162 172 183 190 196 205 203 206 211 215 227 204 195 203 208 212 217 227 236 240 245 254 261 265 268 273 279 282 282 281 281 286 295 301
Height
1203 1213 1223 1233 1244 1255 1266 1278 1290 1302 1314 1326 1338 1350 1362 1373 1384 1393 1401 1408 1415 1418 1420 1420 1423 1426 1425 1429 1431 1442 1452 1451 1457 1458 1459 1462 1463 1460 1460 1455 1464 1471 1483 1485 1483 1478 1470 1461 1462 1469 1467 1464 1464 1463
1194 1204 1214 1225 1236 1247 1259 1271 1283 1295 1308 1320 1332 1344 1355 1366 1378 1389 1397 1402 1410 1418 1419 1422 1422 1422 1422 1426 1429 1429 1430 1435 1440 1449 1450 1453 1458 1458 1458 1452 1454 1465 1465 1464 1469 1465 1462 1461 1462 1463 1462 1461 1459 1458
1183 1195 1206 1217 1229 1242 1253 1265 1277 1290 1302 1315 1327 1338 1350 1362 1373 1383 1390 1398 1407 1413 1417 1421 1421 1420 1420 1420 1423 1427 1426 1428 1432 1435 1442 1449 1452 1454 1452 1455 1455 1458 1459 1463 1464 1461 1462 1462 1463 1462 1461 1460 1459 1457
1172 1185 1199 1211 1224 1236 1248 1261 1273 1286 1298 1310 1322 1334 1346 1357 1368 1378 1384 1393 1403 1410 1417 1418 1418 1418 1415 1417 1417 1419 1418 1423 1429 1433 1440 1446 1448 1450 1453 1452 1455 1456 1459 1460 1460 1458 1458 1459 1460 1459 1458 1457 1456 1454
1161 1177 1193 1207 1220 1233 1245 1258 1270 1281 1294 1307 1319 1330 1341 1354 1366 1376 1384 1391 1397 1405 1410 1418 1418 1417 1413 1415 1413 1416 1417 1419 1426 1436 1441 1444 1445 1449 1453 1456 1458 1449 1451 1457 1460 1455 1457 1459 1459 1458 1457 1456 1455 1452
1161 1176 1191 1206 1219 1231 1243 1255 1267 1279 1290 1302 1314 1326 1337 1350 1362 1371 1382 1388 1392 1400 1406 1419 1419 1416 1410 1412 1416 1417 1415 1419 1424 1431 1439 1442 1444 1449 1454 1456 1444 1445 1444 1444 1452 1454 1456 1458 1458 1456 1455 1454 1453 1451
1172 1183 1195 1207 1218 1230 1242 1253 1265 1277 1289 1300 1311 1323 1335 1348 1358 1365 1370 1374 1385 1397 1403 1416 1413 1410 1410 1415 1418 1417 1418 1423 1424 1432 1438 1442 1443 1446 1447 1443 1443 1443 1446 1449 1451 1451 1454 1455 1457 1454 1454 1454 1453 1451
1178 1188 1198 1209 1220 1231 1241 1252 1263 1275 1287 1300 1313 1326 1339 1350 1360 1365 1364 1370 1378 1391 1398 1407 1412 1413 1415 1418 1422 1424 1424 1427 1430 1433 1436 1439 1445 1444 1444 1438 1440 1443 1446 1449 1450 1452 1454 1455 1453 1453 1454 1451 1449 1449
1185 1194 1202 1212 1223 1233 1243 1255 1266 1279 1292 1305 1317 1328 1336 1343 1349 1353 1363 1371 1377 1383 1386 1399 1400 1403 1412 1419 1421 1425 1426 1430 1433 1434 1433 1437 1440 1440 1434 1434 1437 1442 1445 1449 1450 1451 1452 1454 1456 1456 1455 1453 1451 1450
1193 1201 1210 1220 1230 1240 1250 1261 1272 1283 1294 1304 1314 1324 1330 1336 1345 1355 1367 1370 1369 1371 1378 1383 1385 1393 1406 1415 1419 1424 1426 1430 1433 1430 1428 1432 1434 1430 1431 1434 1437 1441 1444 1447 1447 1451 1454 1455 1456 1455 1453 1454 1454 1452
1204 1212 1221 1229 1238 1247 1256 1264 1273 1284 1293 1299 1311 1321 1328 1336 1343 1350 1356 1358 1360 1363 1370 1376 1381 1382 1402 1405 1412 1417 1422 1421 1423 1426 1428 1431 1434 1432 1431 1434 1438 1442 1444 1447 1450 1451 1452 1454 1455 1455 1454 1455 1453 1451
1214 1222 1229 1237 1245 1252 1260 1266 1272 1279 1288 1295 1303 1319 1330 1335 1338 1338 1340 1345 1343 1348 1357 1362 1375 1386 1395 1402 1408 1411 1412 1413 1413 1417 1425 1427 1424 1425 1428 1434 1438 1441 1445 1449 1448 1450 1451 1453 1454 1454 1454 1453 1451 1449
1222 1229 1236 1243 1250 1257 1265 1271 1277 1285 1290 1302 1309 1317 1321 1326 1326 1323 1325 1328 1333 1336 1345 1353 1370 1381 1390 1396 1399 1403 1409 1413 1410 1421 1419 1417 1417 1423 1429 1434 1438 1441 1445 1446 1448 1450 1452 1453 1452 1451 1450 1450 1448 1446
1230 1236 1242 1249 1256 1262 1267 1273 1279 1285 1293 1299 1304 1313 1313 1316 1312 1306 1306 1308 1315 1327 1338 1348 1356 1371 1380 1388 1392 1399 1403 1406 1415 1416 1410 1415 1418 1422 1426 1431 1436 1441 1443 1445 1448 1451 1451 1451 1450 1449 1448 1447 1446 1444
1236 1242 1247 1254 1259 1265 1270 1275 1282 1286 1291 1299 1303 1305 1305 1302 1301 1299 1301 1308 1318 1325 1335 1349 1359 1366 1376 1384 1387 1392 1402 1403 1397 1399 1402 1409 1415 1421 1427 1432 1436 1439 1442 1445 1447 1448 1448 1448 1446 1446 1446 1446 1445 1443
1239 1246 1254 1258 1261 1267 1273 1280 1284 1288 1298 1302 1304 1303 1302 1304 1305 1304 1305 1312 1322 1328 1337 1343 1355 1368 1373 1374 1379 1386 1385 1385 1389 1393 1399 1405 1412 1422 1427 1431 1436 1438 1442 1444 1446 1446 1445 1443 1443 1445 1446 1445 1443 1441
1243 1250 1257 1261 1267 1272 1279 1283 1287 1294 1299 1301 1302 1301 1302 1304 1307 1309 1312 1317 1322 1325 1335 1341 1350 1357 1365 1371 1370 1374 1383 1381 1387 1396 1401 1406 1414 1419 1426 1430 1434 1438 1439 1441 1442 1442 1441 1441 1443 1444 1444 1442 1441 1439
1251 1257 1262 1268 1275 1280 1286 1289 1296 1302 1303 1303 1303 1303 1305 1307 1311 1315 1319 1322 1324 1327 1332 1339 1342 1350 1363 1359 1371 1375 1379 1385 1392 1398 1404 1410 1416 1420 1424 1429 1433 1435 1437 1438 1438 1438 1439 1441 1443 1443 1442 1440 1438 1436
1258 1265 1271 1275 1279 1283 1292 1300 1302 1306 1309 1309 1311 1312 1313 1316 1318 1319 1320 1323 1327 1331 1334 1337 1343 1353 1356 1357 1364 1374 1381 1387 1393 1401 1406 1411 1414 1419 1424 1429 1431 1433 1434 1435 1435 1436 1439 1440 1441 1440 1439 1437 1436 1434
1269 1274 1278 1280 1282 1286 1295 1304 1304 1309 1313 1317 1318 1319 1320 1321 1323 1325 1327 1330 1332 1334 1338 1346 1352 1351 1354 1361 1368 1375 1383 1388 1392 1399 1407 1412 1416 1420 1423 1426 1428 1430 1431 1432 1434 1436 1438 1439 1438 1437 1436 1435 1433 1431
1277 1281 1283 1284 1287 1291 1298 1303 1306 1311 1316 1320 1322 1323 1326 1327 1329 1332 1333 1333 1333 1341 1351 1356 1357 1359 1362 1367 1371 1377 1384 1388 1392 1395 1401 1408 1415 1419 1422 1423 1426 1427 1429 1432 1434 1435 1436 1436 1436 1435 1433 1432 1431 1429
1278 1282 1286 1288 1292 1295 1300 1303 1306 1311 1317 1322 1324 1327 1331 1334 1335 1335 1336 1337 1348 1353 1355 1359 1363 1366 1368 1372 1378 1381 1387 1392 1396 1400 1405 1408 1412 1415 1418 1421 1423 1426 1429 1430 1431 1433 1433 1433 1432 1432 1431 1430 1428 1427
1282 1284 1286 1287 1290 1298 1307 1305 1308 1311 1317 1322 1325 1329 1334 1335 1336 1338 1343 1352 1358 1360 1362 1364 1367 1368 1372 1378 1383 1386 1390 1393 1396 1400 1404 1407 1409 1413 1416 1419 1422 1424 1425 1427 1429 1430 1431 1431 1430 1429 1428 1427 1426 1425
1278 1280 1282 1285 1291 1301 1305 1305 1307 1310 1316 1321 1326 1333 1336 1339 1341 1342 1349 1356 1362 1363 1364 1367 1370 1375 1380 1383 1385 1389 1393 1395 1397 1401 1402 1404 1408 1412 1415 1418 1420 1421 1423 1425 1427 1428 1428 1427 1427 1426 1426 1425 1424 1422
1277 1285 1285 1291 1293 1298 1306 1310 1312 1315 1322 1324 1331 1337 1339 1338 1344 1347 1351 1357 1361 1365 1367 1370 1374 1377 1378 1383 1389 1392 1393 1394 1394 1396 1402 1404 1407 1411 1414 1416 1418 1420 1422 1424 1425 1425 1424 1424 1424 1423 1423 1422 1421 1420
1286 1289 1292 1294 1297 1299 1305 1315 1316 1318 1322 1328 1331 1333 1335 1339 1348 1350 1352 1356 1360 1363 1365 1369 1373 1377 1382 1385 1385 1388 1390 1392 1394 1397 1400 1402 1405 1409 1411 1413 1416 1418 1419 1420 1421 1421 1421 1421 1421 1421 1420 1420 1419 1418
1296 1297 1294 1294 1294 1296 1304 1308 1311 1316 1325 1332 1332 1336 1340 1352 1354 1354 1354 1356 1359 1363 1368 1373 1375 1378 1379 1382 1385 1387 1389 1392 1394 1397 1400 1403 1405 1408 1410 1411 1413 1415 1416 1418 1418 1418 1418 1418 1417 1417 1417 1417 1417 1415
1296 1298 1303 1302 1301 1303 1309 1314 1319 1324 1324 1325 1330 1340 1344 1346 1351 1353 1354 1357 1361 1366 1370 1373 1376 1377 1378 1380 1382 1384 1387 1390 1393 1396 1400 1403 1405 1407 1408 1410 1411 1412 1414 1414 1415 1415 1415 1415 1415 1414 1414 1413 1414 1412
1303 1305 1305 1308 1307 1312 1317 1320 1321 1323 1325 1327 1331 1338 1344 1349 1353 1355 1358 1360 1363 1365 1368 1370 1372 1375 1378 1381 1383 1385 1387 1389 1392 1395 1397 1400 1402 1404 1406 1407 1408 1409 1411 1411 1412 1412 1412 1413 1413 1413 1412 1412 1411 1410
1309 1309 1310 1315 1319 1325 1328 1327 1329 1328 1326 1327 1333 1342 1349 1354 1356 1358 1360 1362 1364 1366 1369 1371 1373 1376 1377 1380 1382 1384 1387 1389 1391 1394 1395 1397 1400 1401 1402 1404 1405 1407 1407 1408 1409 1409 1409 1410 1410 1409 1410 1409 1408 1408
1310 1311 1315 1321 1327 1330 1330 1331 1332 1333 1335 1338 1342 1346 1349 1354 1358 1361 1362 1364 1366 1368 1370 1372 1374 1376 1378 1379 1382 1384 1385 1387 1389 1391 1393 1395 1397 1399 1400 1402 1403 1404 1405 1405 1405 1406 1406 1406 1406 1406 1405 1405 1405 1405
1313 1314 1320 1326 1332 1334 1334 1336 1338 1340 1342 1344 1346 1349 1351 1353 1358 1361 1363 1364 1366 1368 1371 1372 1374 1375 1378 1380 1382 1383 1385 1386 1387 1390 1392 1394 1396 1397 1399 1400 1401 1402 1403 1403 1403 1403 1403 1404 1404 1404 1404 1403 1402 1401
1318 1318 1321 1324 1329 1333 1335 1335 1338 1343 1345 1348 1350 1350 1352 1354 1361 1365 1365 1367 1369 1370 1372 1373 1375 1377 1378 1380 1381 1382 1384 1385 1387 1389 1390 1392 1394 1396 1397 1398 1399 1400 1401 1401 1401 1401 1402 1402 1401 1401 1401 1400 1399 1398